Regional Weather Roundup
Issued by NWS

Home | Current Version | Previous Version | Text Only | Print | Product List | Glossary Off
Versions: 1 2 3 4 5 6 7 8 9 10 11 12 13 14 15 16 17 18 19 20 21 22 23 24 25 26 27 28 29 30 31 32 33 34 35 36 37 38 39 40 41 42 43 44 45 46 47 48 49 50

000
ASUS43 KIND 191359
RWRIN

WEATHER ROUNDUP FOR INDIANA
NATIONAL WEATHER SERVICE INDIANAPOLIS IN
900 AM EST SUN NOV 19 2017

NOTE: "FAIR" INDICATES FEW OR NO CLOUDS BELOW 12,000 FEET WITH NO
SIGNIFICANT WEATHER AND/OR OBSTRUCTIONS TO VISIBILITY.

* - STATION DOES NOT REPORT WEATHER SUCH AS PRECIPITATION OR FOG.

+ - STATION NOT QUALITY CONTROLLED BY THE NATIONAL WEATHER SERVICE.
    USE DATA WITH CAUTION...ESPECIALLY DEWPOINT AND RELATIVE
    HUMIDITY OBSERVATIONS.

INZ001>003-010>013-019-020-191500-
NORTHWEST INDIANA

CITY           SKY/WX    TMP DP  RH WIND       PRES   REMARKS
GARY /AIRPORT/ PTSUNNY   32  21  64 W17       30.00R WCI  21
KNOX *+        CLOUDY    32  27  80 NW10      29.97R WCI  24
LA PORTE +     CLOUDY    32  23  69 NW10      29.97R WCI  24
MONTICELLO +   CLOUDY    31  25  76 W16G22    30.00R WCI  20

$$

LMZ046-743>745-191500-
SOUTHERN LAKE MICHIGAN

STATION/POSITION TIME  TEMP    WIND        PRES    WAVE
                       AIR SEA DIR/SP/G            HT
                 (UTC) (F)     (DEG/KT/KT) (MB)    (FT)
BURNS HARBOR     1340   34     280/ 20/ 23 1015.2R
MICHIGAN CITY    1330   33     290/ 22/ 26   N/A

$$

INZ004-005-014>016-021>024-191500-
NORTH CENTRAL INDIANA

CITY           SKY/WX    TMP DP  RH WIND       PRES   REMARKS
GOSHEN         CLOUDY    35  25  66 W16       29.92R WCI  25
PERU/GRISSOM   CLOUDY    34  26  72 W16G22    29.96R WCI  24
SOUTH BEND     CLOUDY    33  24  69 NW16G22   29.95R WCI  23
WARSAW +       CLOUDY    32  27  80 W15       29.93R WCI  22

$$

INZ006>009-017-018-025>027-191500-
NORTHEAST INDIANA

CITY           SKY/WX    TMP DP  RH WIND       PRES   REMARKS
AUBURN +       CLOUDY    36  30  80 W12       29.89R WCI  27
FORT WAYNE     CLOUDY    37  30  75 W14       29.91R WCI  28
KENDALLVILLE + CLOUDY    35  29  79 W8        29.88R WCI  28

$$

INZ028-029-035-036-043>045-051>053-191500-
WEST CENTRAL INDIANA

CITY           SKY/WX    TMP DP  RH WIND       PRES   REMARKS
LAFAYETTE      CLOUDY    31  26  82 W14G22    30.02R WCI  21
TERRE HAUTE    CLOUDY    33  24  69 NW8       30.08R WCI  26

$$

INZ030>032-037>040-046>048-054>057-064-065-191500-
CENTRAL INDIANA

CITY           SKY/WX    TMP DP  RH WIND       PRES   REMARKS
COLUMBUS       CLOUDY    36  28  75 W10       30.03R WCI  28
INDIANAPOLIS   CLOUDY    34  27  75 W13       30.01R WCI  25
-EAGLE CREEK   CLOUDY    34  26  72 W10       30.00R WCI  26
KOKOMO +       CLOUDY    34  29  82 W16       29.97R WCI  24
MT COMFORT *+  CLOUDY    34  32  93 W14G20    29.99R WCI  24
SHELBYVILLE    CLOUDY    36  27  69 W13       30.00R WCI  27

$$

INZ033-034-041-042-049-050-058-059-191500-
EAST CENTRAL INDIANA

CITY           SKY/WX    TMP DP  RH WIND       PRES   REMARKS
MUNCIE         CLOUDY    36  29  75 W9        29.95R WCI  29
RICHMOND +     CLOUDY    34  32  93 W16       29.95R WCI  23

$$

INZ060-061-067>069-081>083-085>088-191500-
SOUTHWEST INDIANA

CITY           SKY/WX    TMP DP  RH WIND       PRES   REMARKS
EVANSVILLE     CLOUDY    34  26  72 W9        30.14R WCI  27
HUNTINGBURG +  CLOUDY    35  28  75 NW12      30.11R WCI  27

$$

INZ062-063-066-070>080-084-089>092-191500-
SOUTH CENTRAL AND SOUTHEAST INDIANA

CITY           SKY/WX    TMP DP  RH WIND       PRES   REMARKS
BLOOMINGTON    CLOUDY    33  26  75 W13       30.03R WCI  24
MADISON *+     CLOUDY    36  30  80 W10G20    30.04R WCI  28
SEYMOUR +      CLOUDY    37  30  75 W9        30.05R WCI  31

$$




USA.gov is the U.S. government's official web portal to all federal, state and local government web resources and services.